{"data":{"norad_id":60108,"intl_designator":"2024-117T","name":"STARLINK-32042","alt_names":[],"object_type":"PAYLOAD","status":"ACTIVE","operator":null,"country":"US","launch_date":"2024-06-23","launch_site_code":"AFETR","launch_vehicle":null,"mission":null,"orbit_class":"UNKNOWN","rcs_meters":null,"size_class":null,"mass_kg":null,"dimensions":null,"purposes":["comms"],"wikipedia_slug":null,"has_3d_model":false,"image_url":null,"decayed_at":null,"tle_current":{"epoch":"2026-09-21T03:17:13.215264Z","epoch_age_seconds":122357,"freshness":"FRESH","line1":"1 60108U 24117T   26264.13695851  .00002626  00000+0  88740-4 0  9994","line2":"2 60108  53.1600 206.9257 0001109 105.3669 254.7456 15.34433047126842","mean_motion":15.34433047,"eccentricity":0.0001109,"inclination_deg":53.16,"raan_deg":206.9257,"arg_perigee_deg":105.3669,"mean_anomaly_deg":254.7456,"bstar":8.874e-5,"rev_number":12684,"period_min":93.845736887339,"perigee_km":461.84638103167,"apogee_km":463.36365761156,"semimajor_km":6840.7420193216,"source":"CELESTRAK","updated_at":"2026-09-22T09:00:49.153131Z"}}}